Погода в Аржаане

Россия / Республика Тыва     52°03′36″N   93°36′17″E
темп.,
°C
ветер,
м/с
пор.,
м/с
влажн.,
%
обл.,
%
осадки,
мм/ч
давл.,
гПа
погр.,
м
10 апреля, сб
сб1001:00−5зсз229031 0.0 103044
04:00−6зсз229165 0.0 103044
07:00−6зсз228941 0.0 103182
10:00−1сз357633 0.0 1029744
13:00+2ссз676647 0.0 10261357
16:00+1ссз9105744 0.0 10271175
19:00−2ссз712655 0.0 1031625
22:00−4сз38824 0.0 1034201
11 апреля, вс
вс1101:00−6з23915 0.0 103748
04:00−6зсз229412 0.0 103937
07:00−6зсз229212 0.0 104162
10:00−2сз23634 0.0 1040664
13:00+2ссз22450 0.0 1038947
16:00+4ссз23400 0.0 10351004
19:00+1зюз11569 0.0 103610
22:000юз2261100 0.0 103713
12 апреля, пн
пн1201:00−1зюз1165100 0.0 103710
04:00−2юз00695 0.0 103610
07:00−2сз007058 0.0 103713
10:00+3всв115023 0.0 1034438
13:00+6св224287 0.0 1031797
16:00+6в114872 0.0 1029537
19:00+3ююв006690 0.0 102910
22:00+2зсз116796 0.0 103010
13 апреля, вт
вт1301:00+1з116994 0.0 102910
04:00+1сз0072100 0.0 102710
07:00+2зсз0170100 0.0 102612
10:00+4ссв1161100 0.0 1024297
13:00+7всв1462100 0.1 1021702
16:00+6св3469100 0.1 1020785
19:00+4сз397312 0.6 1021512
22:000сз496844 0.0 1026354
14 апреля, ср
ср1401:00−2ссз267916 0.1 1028384
04:00−3зюз228522 0.0 102998
07:00−2зюз276538 0.1 1028623
10:00+2зсз6105098 0.1 10272082
13:00+4сз71141100 0.1 10252395
16:00+4сз6104572 0.0 10231887
19:00+1сз356390 0.0 1024196
22:000юз1169100 0.0 102415